Flag for U.S.A. Weather past 2 weeks in Aliso Viejo, California, U.S.A.

Now
58 °F

Passing clouds.


Feels Like: 58 °F
Forecast: 54 / 73 °F
Wind: No wind

Location: John Wayne Airport-Orange County Airport

Current Time: Apr 2, 2015 at 3:24:26 AM

Latest Report: Apr 2, 2015 at 2:53 AM


Visibility: 10 mi

Pressure: 29.94 "Hg

Humidity: 75%

Dew point: 50 °F

Location of Aliso ViejoLocation

Historic Weather in Aliso Viejo — Graph

°F

Aliso Viejo temperature yesterday

Maximum temperature yesterday: 71 °F (at 2:53 PM)
Minimum temperature yesterday: 59 °F (at 12:53 AM)
Average temperature yesterday: 64 °F

Past Weeks' High & Low Weather Summary

 TemperatureHumidityPressure
High87 °F (Mar 26, 11:53 AM)94% (Mar 30, 4:02 AM)30.19 "Hg (Mar 30, 4:02 AM)
Low57 °F (Mar 30, 4:53 AM)16% (Mar 26, 4:53 PM)29.91 "Hg (Apr 1, 4:53 PM)
Average65 °F68%30.03 "Hg
* Reported Mar 18 1:53 AM — Apr 2 1:53 AM, Aliso Viejo, Weather by CustomWeather, © 2015

Note: Actual official high and low records may vary slightly from our data, if they occured in-between our weather recording intervals... More about our weather records

Advertising

Aliso Viejo weather history for previous 24 hours

 ConditionsComfort  
Time TempWeatherWind HumidityBarometerVisibility
1:53 AM
Thu, Apr 2
58 °FClear.No wind75%29.95 "Hg10 mi
12:53 AM59 °FClear.No wind67%29.95 "Hg10 mi
11:53 PM
Wed, Apr 1
60 °FClear.No wind67%29.95 "Hg10 mi
10:53 PM61 °FClear.No wind75%29.95 "Hg10 mi
9:53 PM61 °FClear.3 mph78%29.96 "Hg10 mi
8:53 PM63 °FPassing clouds.5 mph70%29.94 "Hg10 mi
7:53 PM64 °FPassing clouds.6 mph63%29.92 "Hg10 mi
6:53 PM65 °FPassing clouds.7 mph63%29.91 "Hg10 mi
5:53 PM68 °FPassing clouds.7 mph53%29.91 "Hg10 mi
4:53 PM69 °FPassing clouds.9 mph53%29.91 "Hg10 mi
3:53 PM70 °FScattered clouds.9 mph55%29.91 "Hg10 mi
2:53 PM71 °FPassing clouds.6 mph53%29.92 "Hg10 mi
1:53 PM70 °FPassing clouds.10 mph55%29.96 "Hg10 mi
12:53 PM69 °FPassing clouds.10 mph57%29.98 "Hg10 mi
11:53 AM70 °FScattered clouds.No wind49%29.98 "Hg10 mi
10:53 AM67 °FScattered clouds.6 mph55%30.01 "Hg10 mi
10:03 AM64 °FMostly cloudy.5 mph60%30.02 "Hg10 mi
9:53 AM65 °FOvercast.5 mph61%30.03 "Hg10 mi
8:53 AM62 °FOvercast.5 mph67%30.01 "Hg10 mi
7:53 AM61 °FPartly sunny.5 mph67%29.98 "Hg10 mi
6:53 AM60 °FOvercast.7 mph72%29.97 "Hg10 mi
5:53 AM60 °FOvercast.5 mph78%29.96 "Hg10 mi
4:53 AM61 °FOvercast.6 mph75%29.96 "Hg10 mi
3:53 AM61 °FPassing clouds.No wind78%29.98 "Hg10 mi
Weather by CustomWeather, © 2015

See weather overviewHow to use our weather pages